Estación de Talagante
Ultimos registro cada 15 minutos 96
| N° | Estación | Fecha / Hora | Temperatura | Humedad | Lluvia | Velocidad | Dirección | Radiación | Presion |
| 96 | Talagante | 30-08-2026 23:45 | 11,6 | 75 | 0 | 0 | 188 | 0 | 1021,1 |
| 95 | Talagante | 30-08-2026 23:30 | 11,8 | 73 | 0 | 0 | 125 | 0 | 1020,9 |
| 94 | Talagante | 30-08-2026 23:15 | 11,9 | 67 | 0 | 0 | 6 | 0 | 1021,2 |
| 93 | Talagante | 30-08-2026 23:00 | 12,1 | 65 | 0 | 0 | 6 | 0 | 1021,2 |
| 92 | Talagante | 30-08-2026 22:45 | 12,2 | 64 | 0 | 0 | 6 | 0 | 1020,7 |
| 91 | Talagante | 30-08-2026 22:30 | 12,5 | 63 | 0 | 0,4 | 6 | 0 | 1020,5 |
| 90 | Talagante | 30-08-2026 22:15 | 12,7 | 58 | 0 | 0,9 | 307 | 0 | 1020,4 |
| 89 | Talagante | 30-08-2026 22:00 | 12,4 | 58 | 0 | 1,3 | 307 | 0 | 1020,4 |
| 88 | Talagante | 30-08-2026 21:45 | 12,7 | 57 | 0 | 0 | 245 | 0 | 1020,1 |
| 87 | Talagante | 30-08-2026 21:30 | 12,9 | 54 | 0 | 0 | 245 | 0 | 1019,6 |
| 86 | Talagante | 30-08-2026 21:15 | 13,2 | 52 | 0 | 0 | 245 | 0 | 1019,7 |
| 85 | Talagante | 30-08-2026 21:00 | 13,4 | 50 | 0 | 0,4 | 247 | 0 | 1019,1 |
| 84 | Talagante | 30-08-2026 20:45 | 13,3 | 52 | 0 | 0 | 228 | 0 | 1019,1 |
| 83 | Talagante | 30-08-2026 20:30 | 13,4 | 54 | 0 | 0,9 | 253 | 0 | 1019 |
| 82 | Talagante | 30-08-2026 20:15 | 13,3 | 55 | 0 | 1,8 | 263 | 0 | 1019,2 |
| 81 | Talagante | 30-08-2026 20:00 | 13,3 | 57 | 0 | 0,4 | 223 | 0 | 1018,4 |
| 80 | Talagante | 30-08-2026 19:45 | 13,3 | 59 | 0 | 1,8 | 233 | 0 | 1018,2 |
| 79 | Talagante | 30-08-2026 19:30 | 13,5 | 60 | 0 | 1,3 | 200 | 0 | 1018,3 |
| 78 | Talagante | 30-08-2026 19:15 | 13,7 | 63 | 0 | 1,3 | 207 | 0 | 1018 |
| 77 | Talagante | 30-08-2026 19:00 | 13,8 | 65 | 0 | 0,9 | 247 | 0 | 1017,9 |
| 76 | Talagante | 30-08-2026 18:45 | 14,1 | 68 | 0 | 2,2 | 201 | 0 | 1017,6 |
| 75 | Talagante | 30-08-2026 18:30 | 14,5 | 68 | 0 | 0,9 | 188 | 0 | 1017,2 |
| 74 | Talagante | 30-08-2026 18:15 | 14,8 | 67 | 0 | 1,8 | 207 | 5 | 1017,1 |
| 73 | Talagante | 30-08-2026 18:00 | 15,1 | 68 | 0 | 1,3 | 207 | 14 | 1017 |
| 72 | Talagante | 30-08-2026 17:45 | 15,3 | 69 | 0 | 1,3 | 219 | 26 | 1016,9 |
| 71 | Talagante | 30-08-2026 17:30 | 15,7 | 69 | 0 | 1,8 | 226 | 35 | 1016,9 |
| 70 | Talagante | 30-08-2026 17:15 | 16,3 | 67 | 0 | 1,8 | 225 | 49 | 1016,8 |
| 69 | Talagante | 30-08-2026 17:00 | 16,8 | 65 | 0 | 1,3 | 228 | 62 | 1016,5 |
| 68 | Talagante | 30-08-2026 16:45 | 17,3 | 60 | 0 | 2,2 | 263 | 62 | 1016,6 |
| 67 | Talagante | 30-08-2026 16:30 | 17,6 | 59 | 0 | 1,3 | 205 | 111 | 1016,8 |
| 66 | Talagante | 30-08-2026 16:15 | 17,7 | 58 | 0 | 0,4 | 221 | 132 | 1016,6 |
| 65 | Talagante | 30-08-2026 16:00 | 17,8 | 58 | 0 | 2,7 | 215 | 148 | 1016,6 |
| 64 | Talagante | 30-08-2026 15:45 | 18,1 | 56 | 0 | 2,2 | 199 | 171 | 1016,7 |
| 63 | Talagante | 30-08-2026 15:30 | 18,3 | 58 | 0 | 1,8 | 242 | 183 | 1016,4 |
| 62 | Talagante | 30-08-2026 15:15 | 18,7 | 57 | 0 | 2,2 | 197 | 185 | 1016,5 |
| 61 | Talagante | 30-08-2026 15:00 | 18,4 | 58 | 0 | 1,8 | 197 | 220 | 1016,6 |
| 60 | Talagante | 30-08-2026 14:45 | 18,7 | 60 | 0 | 1,8 | 257 | 348 | 1017 |
| 59 | Talagante | 30-08-2026 14:30 | 18,9 | 58 | 0 | 4,5 | 201 | 462 | 1016,7 |
| 58 | Talagante | 30-08-2026 14:15 | 19,2 | 56 | 0 | 1,8 | 191 | 563 | 1016,8 |
| 57 | Talagante | 30-08-2026 14:00 | 18,9 | 57 | 0 | 1,8 | 303 | 288 | 1016,9 |
| 56 | Talagante | 30-08-2026 13:45 | 18,8 | 58 | 0 | 1,8 | 265 | 691 | 1016,9 |
| 55 | Talagante | 30-08-2026 13:30 | 18,9 | 56 | 0 | 1,3 | 189 | 698 | 1017,2 |
| 54 | Talagante | 30-08-2026 13:15 | 18,1 | 59 | 0 | 0,9 | 238 | 668 | 1016,9 |
| 53 | Talagante | 30-08-2026 13:00 | 17,9 | 60 | 0 | 2,7 | 200 | 497 | 1016,9 |
| 52 | Talagante | 30-08-2026 12:45 | 17,9 | 60 | 0 | 2,2 | 233 | 287 | 1017,1 |
| 51 | Talagante | 30-08-2026 12:30 | 17,9 | 60 | 0 | 1,8 | 245 | 677 | 1017,3 |
| 50 | Talagante | 30-08-2026 12:15 | 17,5 | 60 | 0 | 1,8 | 213 | 661 | 1017,4 |
| 49 | Talagante | 30-08-2026 12:00 | 17,3 | 61 | 0 | 1,8 | 224 | 657 | 1017,4 |
| 48 | Talagante | 30-08-2026 11:45 | 16,8 | 63 | 0 | 1,8 | 226 | 650 | 1017,4 |
| 47 | Talagante | 30-08-2026 11:30 | 16,5 | 64 | 0 | 1,8 | 184 | 631 | 1017,4 |
| 46 | Talagante | 30-08-2026 11:15 | 15,9 | 65 | 0 | 0,9 | 203 | 605 | 1017,5 |
| 45 | Talagante | 30-08-2026 11:00 | 15,5 | 66 | 0 | 0,9 | 236 | 578 | 1017,6 |
| 44 | Talagante | 30-08-2026 10:45 | 15,2 | 69 | 0 | 0,9 | 217 | 550 | 1017,5 |
| 43 | Talagante | 30-08-2026 10:30 | 14,6 | 69 | 0 | 0,9 | 199 | 522 | 1017,5 |
| 42 | Talagante | 30-08-2026 10:15 | 14,2 | 72 | 0 | 0,4 | 191 | 485 | 1017,5 |
| 41 | Talagante | 30-08-2026 10:00 | 13,8 | 73 | 0 | 0 | 45 | 446 | 1017,7 |
| 40 | Talagante | 30-08-2026 09:45 | 13,1 | 77 | 0 | 0 | 45 | 411 | 1017,4 |
| 39 | Talagante | 30-08-2026 09:30 | 12,3 | 79 | 0 | 0,4 | 49 | 373 | 1017,4 |
| 38 | Talagante | 30-08-2026 09:15 | 11,8 | 80 | 0 | 0 | 42 | 332 | 1017,4 |
| 37 | Talagante | 30-08-2026 09:00 | 11 | 83 | 0 | 0 | 74 | 285 | 1017,1 |
| 36 | Talagante | 30-08-2026 08:45 | 10,1 | 85 | 0 | 0 | 74 | 239 | 1016,9 |
| 35 | Talagante | 30-08-2026 08:30 | 9,3 | 88 | 0 | 0 | 74 | 193 | 1016,7 |
| 34 | Talagante | 30-08-2026 08:15 | 8,1 | 91 | 0 | 0 | 74 | 146 | 1016,7 |
| 33 | Talagante | 30-08-2026 08:00 | 6,8 | 93 | 0 | 0 | 74 | 97 | 1016,5 |
| 32 | Talagante | 30-08-2026 07:45 | 5,9 | 92 | 0 | 0 | 74 | 58 | 1016,3 |
| 31 | Talagante | 30-08-2026 07:30 | 5,7 | 90 | 0 | 0,9 | 74 | 19 | 1016,1 |
| 30 | Talagante | 30-08-2026 07:15 | 6,2 | 91 | 0 | 0,9 | 74 | 5 | 1015,9 |
| 29 | Talagante | 30-08-2026 07:00 | 6,7 | 91 | 0 | 0,9 | 74 | 0 | 1015,6 |
| 28 | Talagante | 30-08-2026 06:45 | 6,8 | 91 | 0 | 0 | 74 | 0 | 1015,4 |
| 27 | Talagante | 30-08-2026 06:30 | 6,4 | 91 | 0 | 0,4 | 73 | 0 | 1015,5 |
| 26 | Talagante | 30-08-2026 06:15 | 6,7 | 92 | 0 | 0 | 74 | 0 | 1015,3 |
| 25 | Talagante | 30-08-2026 06:00 | 6,8 | 93 | 0 | 0,9 | 74 | 0 | 1015,1 |
| 24 | Talagante | 30-08-2026 05:45 | 6,6 | 92 | 0 | 0 | 74 | 0 | 1015 |
| 23 | Talagante | 30-08-2026 05:30 | 6,1 | 92 | 0 | 0,4 | 74 | 0 | 1014,9 |
| 22 | Talagante | 30-08-2026 05:15 | 6,5 | 92 | 0 | 0 | 75 | 0 | 1015 |
| 21 | Talagante | 30-08-2026 05:00 | 6,7 | 92 | 0 | 0,4 | 75 | 0 | 1014,8 |
| 20 | Talagante | 30-08-2026 04:45 | 6,1 | 93 | 0 | 0 | 73 | 0 | 1014,8 |
| 19 | Talagante | 30-08-2026 04:30 | 6,1 | 90 | 0 | 0 | 73 | 0 | 1014,7 |
| 18 | Talagante | 30-08-2026 04:15 | 6,6 | 91 | 0 | 0 | 73 | 0 | 1014,5 |
| 17 | Talagante | 30-08-2026 04:00 | 7 | 91 | 0 | 0 | 64 | 0 | 1014,3 |
| 16 | Talagante | 30-08-2026 03:45 | 7,2 | 91 | 0 | 0 | 64 | 0 | 1014,4 |
| 15 | Talagante | 30-08-2026 03:30 | 6,9 | 91 | 0 | 0,4 | 64 | 0 | 1014,2 |
| 14 | Talagante | 30-08-2026 03:15 | 7,1 | 91 | 0 | 0,9 | 64 | 0 | 1014,4 |
| 13 | Talagante | 30-08-2026 03:00 | 7,1 | 90 | 0 | 0 | 95 | 0 | 1014,5 |
| 12 | Talagante | 30-08-2026 02:45 | 7,3 | 89 | 0 | 0 | 103 | 0 | 1014,6 |
| 11 | Talagante | 30-08-2026 02:30 | 7,5 | 90 | 0 | 0 | 103 | 0 | 1014,7 |
| 10 | Talagante | 30-08-2026 02:15 | 7,8 | 90 | 0 | 0 | 121 | 0 | 1014,9 |
| 9 | Talagante | 30-08-2026 02:00 | 7,7 | 88 | 0 | 0 | 121 | 0 | 1014,9 |
| 8 | Talagante | 30-08-2026 01:45 | 8,2 | 89 | 0 | 0 | 121 | 0 | 1015,1 |
| 7 | Talagante | 30-08-2026 01:30 | 8,3 | 90 | 0 | 0 | 121 | 0 | 1015 |
| 6 | Talagante | 30-08-2026 01:15 | 7,8 | 90 | 0 | 0 | 121 | 0 | 1015,2 |
| 5 | Talagante | 30-08-2026 01:00 | 7,8 | 89 | 0 | 0 | 122 | 0 | 1015,4 |
| 4 | Talagante | 30-08-2026 00:45 | 7,8 | 90 | 0 | 0 | 125 | 0 | 1015,6 |
| 3 | Talagante | 30-08-2026 00:30 | 7,7 | 86 | 0 | 0 | 138 | 0 | 1015,4 |
| 2 | Talagante | 30-08-2026 00:15 | 8,3 | 88 | 0 | 0 | 138 | 0 | 1015,5 |
| 1 | Talagante | 30-08-2026 00:00 | 8,2 | 88 | 0 | 0 | 138 | 0 | 1015,6 |